User: anonymous   Login
Location: Terra Rouge Observatory
(46.0000°N, 62.7500°W)
Time: 15:57:18
(UTC-03:00)
Language:

NOSS 3-1 (A) - Orbit

View from above orbital plane
View from above orbital plane
View from above satellite
View from above satellite

Ground track
Ground track

The orbit data is extracted from the following two-line orbital elements,

1 26905U 01040A   14292.15507675 0.00000000  00000-0  00000-0 0    04
2 26905  63.4260 353.5986 0287000 357.7182   2.2817 13.40694625    04
Epoch (UTC): 19 October 2014 03:43:18
Eccentricity: 0.0287000
inclination: 63.4260°
perigee height: 892 km
apogee height: 1321 km
right ascension of ascending node: 353.5986°
argument of perigee: 357.7182°
revolutions per day: 13.40694625
mean anomaly at epoch: 2.2817°
orbit number at epoch: 0

The dashed part of the orbit path shows where the satellite is in the earth's shadow,  

DLR